Regional Weather Roundup
Issued by NWS Charleston, WV

Home | Current Version | Previous Version | Graphics & Text | Print | Product List | Glossary On
Versions: 1 2 3 4 5 6 7 8 9 10 11 12 13 14 15 16 17 18 19 20 21 22 23 24 25 26 27 28 29 30 31 32 33 34 35 36 37 38 39 40 41 42 43 44 45 46 47 48 49 50
000
ASUS41 KRLX 190710
RWRRLX
West Virginia Regional Weather Roundup
National Weather Service Charleston WV
200 AM EST SUN FEB 19 2017

Note: "fair" indicates few or no clouds below 12,000 feet with no
significant weather and/or obstructions to visibility.

WVZ003-190800-
Northern Panhandle of West Virginia

CITY           SKY/WX    TMP DP  RH WIND       PRES   REMARKS
WHEELING       CLOUDY    49  41  74 SW10      29.87S
$$

WVZ009-190800-
Northwest West Virginia

CITY           SKY/WX    TMP DP  RH WIND       PRES   REMARKS
PARKERSBURG    CLOUDY    48  44  86 SW8       29.95R
$$

WVZ006-190800-
Western West Virginia

CITY           SKY/WX    TMP DP  RH WIND       PRES   REMARKS
HUNTINGTON     LGT RAIN  47  45  93 SW3       29.95R
$$

WVZ015-190800-
West Central West Virginia

CITY           SKY/WX    TMP DP  RH WIND       PRES   REMARKS
CHARLESTON     LGT RAIN  47  45  93 SW3       29.95S FOG
$$

WVZ022-031-190800-
North Central West Virginia

CITY           SKY/WX    TMP DP  RH WIND       PRES   REMARKS
CLARKSBURG     CLOUDY    49  42  77 SW8       29.91S
MORGANTOWN     CLOUDY    49  42  77 SW5       29.90S
$$

WVZ025-035-042-045-190800-
Southern West Virginia

CITY           SKY/WX    TMP DP  RH WIND       PRES   REMARKS
BECKLEY        CLOUDY    46  35  65 N3        29.93R
LOGAN          CLOUDY    48  45  87 SW3       29.94S
BLUEFIELD      CLOUDY    46  36  68 W6        29.94S
LEWISBURG      CLOUDY    48  32  53 CALM      29.91R
$$

WVZ047-190800-
Northern Mountains of West Virginia

CITY           SKY/WX    TMP DP  RH WIND       PRES   REMARKS
ELKINS         LGT RAIN  45  42  89 CALM      29.93R
$$

WVZ052-190800-
Eastern Panhandle of West Virginia

CITY           SKY/WX    TMP DP  RH WIND       PRES   REMARKS
MARTINSBURG    MOCLDY    59  37  44 SW3       29.80S
PETERSBURG     DRIZZLE   59  46  62 W8        29.85S
$$



USA.gov is the U.S. government's official web portal to all federal, state and local government web resources and services.